Regional Weather Roundup
Issued by NWS

Home | Current Version | Previous Version | Text Only | Print | Product List | Glossary On
Versions: 1 2 3 4 5 6 7 8 9 10 11 12 13 14 15 16 17 18 19 20 21 22 23 24 25 26 27 28 29 30 31 32 33 34 35 36 37 38 39 40 41 42 43 44 45 46 47 48 49 50
000
ASUS45 KPSR 201210
RWRAZ

ARIZONA REGIONAL HOURLY WEATHER ROUNDUP
NATIONAL WEATHER SERVICE PHOENIX AZ
500 AM MST SAT DEC 20 2014

NOTE: FAIR INDICATES FEW OR NO CLOUDS BELOW 12,000 FEET WITH NO
SIGNIFICANT WEATHER AND/OR OBSTRUCTIONS TO VISIBILITY.

AZZ001>003-036-201300-
NORTHWEST ARIZONA

CITY           SKY/WX    TMP DP  RH WIND       PRES   REMARKS
BULLHEAD CITY  CLEAR     45  39  81 CALM      30.16F
KINGMAN        CLEAR     32  29  88 SE7       30.14F WCI  26
6HR MIN TEMP:  31; 6HR MAX TEMP:  41;

$$

AZZ004>008-015-016-018-201300-
NORTH CENTRAL ARIZONA

CITY           SKY/WX    TMP DP  RH WIND       PRES   REMARKS
GRAND CANYON   CLEAR     21  19  92 CALM      30.15F
6HR MIN TEMP:  21; 6HR MAX TEMP:  28;

PRESCOTT       PTCLDY    29  24  82 SW7       30.13F WCI  22
6HR MIN TEMP:  29; 6HR MAX TEMP:  37;

FLAGSTAFF      PTCLDY    21  19  92 CALM      30.15F
6HR MIN TEMP:  21; 6HR MAX TEMP:  26;

PAYSON         CLEAR     36  27  69 E6        30.16F WCI  31
PAGE           CLEAR     34  29  82 SW5       30.15F WCI  30
6HR MIN TEMP:  34; 6HR MAX TEMP:  38;

$$

AZZ009>014-017-201300-
NORTHEAST ARIZONA

CITY           SKY/WX    TMP DP  RH WIND       PRES   REMARKS
WINSLOW        CLOUDY    29  28  96 E6        30.20R FOG     WCI  23
6HR MIN TEMP:  29; 6HR MAX TEMP:  30;

SAINT JOHNS    MOCLDY    23  21  92 W6        30.17S WCI  16
6HR MIN TEMP:  22; 6HR MAX TEMP:  27;

WINDOW ROCK    PTCLDY    23  18  81 CALM      30.17F
6HR MIN TEMP:  22; 6HR MAX TEMP:  26;

SHOW LOW       CLOUDY    23  21  93 SE3       30.18F
$$

AZZ023-201300-
GREATER PHOENIX AREA

CITY           SKY/WX    TMP DP  RH WIND       PRES   REMARKS
PHOENIX        MOCLDY    48  41  76 E7        30.10F
6HR MIN TEMP:  47; 6HR MAX TEMP:  52;

BUCKEYE          N/A     41  41 100 E5        30.11F
LUKE AFB       MOCLDY    44  43  96 N5        30.10F
6HR MIN TEMP:  44; 6HR MAX TEMP:  49;

DEER VALLEY    PTCLDY    46  38  73 E6        30.09F
6HR MIN TEMP:  44; 6HR MAX TEMP:  50;

SCOTTSDALE     PTCLDY    44  39  82 CALM      30.11F
6HR MIN TEMP:  44; 6HR MAX TEMP:  50;

MESA-GATEWAY   MOCLDY    37  36  93 SE6       30.14S WCI  33
$$

AZZ027-028-201300-
SOUTHWEST MARICOPA COUNTY AND PINAL COUNTY

CITY           SKY/WX    TMP DP  RH WIND       PRES   REMARKS
CASA GRANDE    PTCLDY    41  37  87 CALM      30.12F
6HR MIN TEMP:  39; 6HR MAX TEMP:  46;

GILA BEND      FAIR      43  38  82 SE7       30.10F
6HR MIN TEMP:  42; 6HR MAX TEMP:  48;

$$

AZZ503-504-507>509-201300-
SOUTHEAST ARIZONA

CITY           SKY/WX    TMP DP  RH WIND       PRES   REMARKS
TUCSON         CLEAR     39  36  89 NE5       30.13R
6HR MIN TEMP:  38; 6HR MAX TEMP:  45;

DAVIS-MONTHAN  PTCLDY    39  35  83 NE5       30.12R
6HR MIN TEMP:  39; 6HR MAX TEMP:  42;

NOGALES        CLEAR     31  28  89 NE6       30.11S WCI  25
6HR MIN TEMP:  31; 6HR MAX TEMP:  39;

SIERRA VISTA   CLEAR     35  26  69 CALM      30.12F
6HR MIN TEMP:  32; 6HR MAX TEMP:  38;

DOUGLAS        PTCLDY    25  23  92 E3        30.13F
6HR MIN TEMP:  23; 6HR MAX TEMP:  34;

SAFFORD        MOCLDY    33  32  96 S9        30.13F WCI  25
6HR MIN TEMP:  32; 6HR MAX TEMP:  38;

$$

AZZ020-021-025-026-031-201300-
SOUTHWEST ARIZONA

CITY           SKY/WX    TMP DP  RH WIND       PRES   REMARKS
YUMA           NOT AVBL
$$

CAZ031-033-041-043-047-048-061-201300-
SOUTHERN CALIFORNIA

CITY           SKY/WX    TMP DP  RH WIND       PRES   REMARKS
DOWNTOWN L.A.  CLEAR     52  47  83 CALM      30.15F
6HR MIN TEMP:  51; 6HR MAX TEMP:  56;

L.A. AIRPORT   PTCLDY    51  48  89 CALM      30.15F
6HR MIN TEMP:  51; 6HR MAX TEMP:  58;

SAN DIEGO      PTCLDY    53  48  83 CALM      30.15S
6HR MIN TEMP:  53; 6HR MAX TEMP:  59;

BURBANK        CLEAR     48  42  80 CALM      30.13F
6HR MIN TEMP:  48; 6HR MAX TEMP:  54;

ONTARIO        PTCLDY    47  42  83 NW5       30.14F
6HR MIN TEMP:  47; 6HR MAX TEMP:  54;

RIVERSIDE      PTCLDY    47  43  86 CALM      30.15S
6HR MIN TEMP:  47; 6HR MAX TEMP:  52;

PALM SPRINGS   PTCLDY    48  41  76 CALM      30.13F
6HR MIN TEMP:  48; 6HR MAX TEMP:  55;

EL CENTRO NAS  CLEAR     44  40  85 SW7       30.12S
6HR MIN TEMP:  44; 6HR MAX TEMP:  50;

IMPERIAL       CLEAR     44  39  82 SW5       30.11F
6HR MIN TEMP:  43; 6HR MAX TEMP:  51;

BLYTHE         CLEAR     45  43  93 CALM      30.12F
6HR MIN TEMP:  45; 6HR MAX TEMP:  53;

NEEDLES        CLEAR     45  39  79 SW8       30.14F
6HR MIN TEMP:  44; 6HR MAX TEMP:  51;

$$

NVZ020-UTZ003-201300-
SOUTHERN NEVADA-UTAH

CITY           SKY/WX    TMP DP  RH WIND       PRES   REMARKS
LAS VEGAS      PTCLDY    42  35  76 S6        30.10F
6HR MIN TEMP:  42; 6HR MAX TEMP:  50;

SALT LAKE CITY CLOUDY    39  34  82 SW6       30.12F WCI  35
6HR MIN TEMP:  38; 6HR MAX TEMP:  41; 6HR PCP: TRACE;

$$

NMZ009-TXZ055-201300-
NEW MEXICO-WEST TEXAS

CITY           SKY/WX    TMP DP  RH WIND       PRES   REMARKS
ALBUQUERQUE    PTCLDY    28  23  81 SW3       30.17F
6HR MIN TEMP:  28; 6HR MAX TEMP:  35;

EL PASO        PTCLDY    31  24  75 N5        30.13S WCI  26
6HR MIN TEMP:  31; 6HR MAX TEMP:  38;

$$


........................KEY........................
SKY/WX - SKY CONDITION/WEATHER
TMP    - TEMPERATURE IN FAHRENHEIT
DP     - DEW POINT IN FAHRENHEIT
RH     - RELATIVE HUMIDITY IN PERCENT
WIND   - DIRECTION AND SPEED IN MILES PER HOUR (MPH)
VRB    - VARIABLE WIND DIRECTION
PRES   - MEAN SEA LEVEL PRESSURE IN INCHES OF MERCURY
         F - FALLING PRESSURE   R - RISING PRESSURE
         S - STEADY PRESSURE
VSB    - VISIBILITY IN MILES
HX     - HEAT INDEX IN FAHRENHEIT
WCI    - WIND CHILL INDEX IN FAHRENHEIT
TC     - TEMPERATURE IN CELSIUS WHICH IS ALSO KNOWN AS
         TEMPERATURE IN CENTIGRADE
AFB    - AIR FORCE BASE
         LUKE AFB IS LUKE AIR FORCE BASE
         DAVIS-MONTHAN IS DAVIS-MONTHAN AIR FORCE BASE
NAS    - NAVAL AIR STATION
         EL CENTRO NAS IS EL CENTRO NAVAL AIR STATION
N/A    - NOT AVAILABLE


USA.gov is the U.S. government's official web portal to all federal, state and local government web resources and services.